Theta_e
345 346 346 346 344 342 339 335 333 332 330 329 328 329 328 338 338 340 343 349 348 347 343 341 339 336 335 333 334 335 333 331 329 327 326 324 322 321 321 321 321 321 321
343 342 343 344 343 341 339 335 331 330 328 330 330 330 333 338 338 339 339 344 348 346 344 341 339 337 335 332 336 332 329 328 325 324 321 320 319 319 320 320 320 320 320
340 341 343 342 343 341 338 334 332 331 330 331 329 328 337 336 338 339 339 341 342 346 345 343 338 335 333 336 334 330 327 324 322 320 318 318 318 318 319 320 320 319 319
341 340 342 342 343 339 338 334 331 330 331 330 325 329 336 336 337 339 338 338 336 338 344 344 339 334 333 336 333 330 325 322 319 318 317 317 317 318 318 318 318 319 318
343 341 342 343 341 340 338 336 331 330 329 326 325 330 337 336 336 338 339 334 333 334 332 342 340 338 337 334 330 327 324 320 317 316 316 316 317 317 318 319 319 318 318
344 342 341 343 342 339 336 334 331 327 327 325 337 338 339 339 339 336 337 334 330 330 328 330 330 332 333 329 326 323 321 319 316 315 315 315 316 317 318 317 317 317 318
348 343 341 340 341 341 338 334 330 328 325 329 335 332 331 336 337 335 335 331 329 327 328 329 326 323 323 323 321 319 318 317 315 315 314 315 316 317 317 317 317 318 318
347 345 343 340 337 340 337 330 328 325 324 333 332 329 327 328 327 326 326 329 327 326 328 325 320 316 313 311 314 316 315 315 316 316 314 314 315 316 316 316 316 318 317
344 343 344 341 339 339 336 330 329 327 327 331 333 329 321 319 321 325 323 323 321 320 322 320 316 311 308 307 309 311 312 314 316 315 314 314 314 315 315 315 317 317 317
344 343 343 342 340 338 336 331 331 329 330 330 331 332 329 326 320 314 321 319 318 316 314 315 309 308 306 307 311 314 312 313 313 312 313 314 314 314 314 316 315 315 315
344 343 343 341 341 338 334 334 332 332 331 331 330 328 325 324 323 317 311 312 311 308 310 308 306 305 309 309 308 309 314 313 310 310 311 312 313 313 313 314 314 314 315
341 342 344 341 340 338 334 337 336 335 333 332 331 330 327 325 321 317 313 310 305 303 304 305 305 308 307 306 311 314 313 309 309 309 309 310 311 312 312 312 313 314 314
340 341 341 340 341 339 338 337 335 334 333 332 332 329 325 323 320 313 317 309 300 302 301 302 306 306 306 304 307 314 310 309 308 308 309 308 309 310 310 311 311 312 312
338 338 340 342 342 341 339 339 336 334 334 327 326 321 320 319 320 316 316 306 302 302 300 299 298 298 298 302 310 311 305 309 309 308 307 307 308 309 309 309 310 309 309
336 338 341 341 339 334 335 337 335 325 322 320 317 316 315 315 315 311 320 313 307 299 296 294 295 296 297 299 306 301 301 309 309 307 306 307 307 308 308 307 307 307 307
332 337 338 338 336 337 335 335 330 321 318 316 316 316 314 314 310 309 310 308 305 299 295 294 295 293 296 301 306 300 302 305 308 307 307 307 307 307 307 307 308 307 306
331 337 338 335 335 335 332 323 321 318 314 312 313 310 310 310 308 304 302 300 300 299 294 295 293 294 295 296 296 297 299 297 298 307 307 307 307 307 307 306 307 306 305
331 335 335 334 330 332 325 320 317 316 312 310 308 307 307 309 305 302 302 300 298 299 297 291 291 293 294 295 295 295 297 299 297 305 306 306 306 306 306 306 306 304 303
329 331 332 328 326 325 322 319 318 316 314 310 308 307 306 304 302 301 300 298 298 297 294 293 290 292 294 295 294 294 294 294 299 305 304 305 305 306 306 306 305 303 302
328 329 330 328 328 328 325 320 317 314 311 309 308 307 304 304 300 299 297 297 296 295 294 293 292 292 292 293 292 290 291 292 293 299 300 303 304 306 307 305 304 303 302
327 327 326 326 323 321 319 317 313 310 307 306 304 303 304 304 305 302 298 296 294 294 293 293 291 290 289 289 289 289 290 290 292 292 293 298 298 301 301 302 304 303 301
322 321 320 320 318 316 307 310 309 307 304 303 304 305 305 305 303 303 302 300 297 294 292 292 290 289 288 289 289 289 288 288 289 294 291 294 297 296 299 300 304 302 301
318 316 314 314 311 310 304 304 306 305 304 303 302 301 301 301 302 301 303 303 302 301 299 293 291 290 290 290 290 289 288 288 289 292 292 292 297 295 299 300 303 301 300
315 315 312 308 306 305 301 300 302 302 301 300 300 300 299 300 300 299 298 297 297 296 295 296 294 293 293 293 292 291 290 290 291 292 293 291 293 294 296 297 302 302 300
309 309 308 307 303 302 301 300 300 299 297 297 299 299 300 299 298 298 297 296 295 296 300 299 298 297 296 296 296 293 291 290 289 292 293 291 293 292 293 295 300 302 300
306 306 303 303 302 298 298 298 299 297 295 296 297 298 300 298 296 296 297 296 293 292 294 293 293 295 296 296 298 293 291 290 293 292 294 293 293 293 292 295 298 299 298
Wind_Speed
7 5 5 5 5 4 4 4 4 4 4 5 2 4 4 5 5 3 4 14 11 10 11 10 8 7 6 4 6 11 12 12 13 15 16 18 18 18 18 18 18 18 18
6 6 5 6 5 4 4 4 5 4 4 4 3 3 3 5 5 5 4 6 13 10 10 10 9 7 6 5 10 10 12 12 13 15 17 17 18 18 19 19 20 19 20
7 8 6 5 5 4 5 4 3 2 3 2 4 3 4 5 5 6 5 4 5 11 10 10 9 7 5 8 10 11 11 12 13 15 17 17 18 19 21 21 19 19 19
10 7 6 6 6 4 5 4 3 3 4 2 2 3 3 4 5 5 3 3 3 2 6 8 8 6 5 9 11 9 10 11 13 14 16 18 18 20 20 20 21 21 22
11 10 8 7 6 5 5 4 2 4 3 2 4 3 2 3 4 4 5 4 4 4 2 6 7 6 11 9 9 8 10 11 12 14 16 17 19 21 22 23 21 21 20
12 10 8 9 6 5 4 4 4 2 3 3 2 3 3 3 3 2 4 3 3 4 4 5 5 7 10 9 9 8 9 11 12 13 15 17 21 23 24 22 20 18 19
12 12 10 8 7 8 8 8 4 5 3 4 4 3 4 4 3 2 1 3 4 4 5 5 4 4 5 11 8 8 11 12 12 13 15 18 22 24 24 22 20 20 19
11 12 12 10 9 8 7 6 6 3 3 5 4 3 3 2 4 3 3 2 4 4 6 7 8 7 5 3 5 7 10 12 14 15 15 19 22 23 23 21 19 20 19
10 11 12 10 10 9 9 7 8 8 5 4 2 6 3 3 3 3 5 5 4 4 6 7 8 6 5 3 4 4 8 11 12 13 16 19 22 23 22 22 20 20 21
12 13 11 11 10 9 10 9 8 5 5 5 2 2 2 5 4 2 3 4 5 7 6 6 5 4 3 2 6 8 6 9 11 12 15 19 23 23 22 22 20 21 22
10 12 13 11 10 7 7 10 8 7 4 5 4 3 2 1 4 5 3 2 5 4 4 5 3 3 3 4 3 5 6 10 10 13 16 20 23 22 21 22 22 22 23
7 10 12 10 7 6 6 9 11 10 7 5 4 4 5 4 4 4 5 3 5 3 4 4 3 3 4 4 7 10 13 11 12 13 17 21 23 23 24 23 22 23 23
4 9 11 10 8 7 4 3 4 6 7 6 7 5 3 3 4 4 9 4 4 1 3 3 4 4 4 4 5 11 12 12 11 14 18 20 20 20 20 21 22 23 23
6 9 11 10 11 6 3 3 2 2 4 5 6 3 3 2 3 6 7 9 4 1 1 3 3 4 3 3 8 11 5 10 13 16 16 18 22 23 23 23 22 21 21
5 8 12 13 12 10 9 8 3 5 6 7 7 4 4 2 2 4 8 11 10 5 2 3 2 5 4 4 7 4 5 12 13 13 13 15 19 21 21 22 22 22 21
5 5 10 14 14 15 13 10 9 11 12 9 7 5 5 3 3 3 4 4 3 5 5 2 2 2 4 4 5 3 6 10 13 11 14 16 18 20 21 22 20 21 19
6 9 10 11 12 9 11 13 13 16 18 15 9 7 7 5 4 3 5 5 6 5 7 3 1 3 5 5 5 5 6 5 5 12 14 17 19 21 22 22 22 23 22
5 9 10 9 9 12 14 18 18 16 17 17 13 10 6 4 4 4 8 8 7 5 7 6 2 4 3 2 3 5 4 4 4 11 14 15 18 18 19 19 19 22 21
6 6 9 12 13 19 19 15 13 16 17 16 16 13 9 7 6 6 9 9 9 8 7 5 3 1 2 3 4 3 3 4 4 11 13 14 16 17 17 19 21 22 21
7 7 9 13 15 19 17 18 18 15 14 13 15 14 10 8 9 11 11 11 10 10 7 7 4 2 3 2 4 3 3 3 4 5 8 11 13 15 17 20 23 25 23
7 8 9 8 10 12 12 17 17 16 16 14 11 12 12 13 16 14 11 10 10 9 6 7 4 3 3 4 3 3 3 2 3 3 4 4 5 5 8 12 18 22 23
8 12 10 13 13 7 19 24 21 16 17 16 14 12 14 20 19 22 20 14 10 10 7 5 3 5 3 2 1 2 3 4 4 2 4 4 4 4 5 8 17 18 19
9 9 10 10 11 14 19 23 25 15 16 15 17 14 13 11 18 15 18 16 14 12 9 7 8 4 3 2 1 3 3 1 2 4 3 5 4 4 4 5 15 17 17
8 8 10 11 13 11 21 23 24 18 16 15 15 15 17 17 15 17 15 12 10 9 8 6 7 6 4 4 3 1 1 3 3 4 2 4 4 3 5 4 14 17 18
9 9 11 13 15 12 14 26 23 17 16 16 14 16 17 17 15 16 15 14 11 9 10 12 11 9 7 8 5 2 5 4 4 4 4 1 4 4 3 4 8 17 18
10 10 13 12 18 15 10 18 19 12 16 14 14 14 22 17 16 10 14 13 12 6 7 6 4 5 8 7 8 5 1 3 3 4 3 4 5 4 5 4 5 9 9
Wind_Direction
195 192 199 192 196 187 197 207 216 230 245 268 195 217 217 175 154 151 171 176 179 178 177 171 171 165 143 116 71 64 48 36 24 18 11 5 356 348 344 339 334 331 329
189 187 197 205 199 194 201 197 209 222 236 253 274 233 230 155 152 151 154 177 183 181 185 178 176 172 158 122 88 60 54 40 22 17 10 3 358 352 345 339 334 330 326
189 193 195 204 210 198 194 197 216 227 247 241 274 261 175 156 158 158 161 172 176 189 193 187 175 168 153 112 82 67 49 35 28 19 10 7 2 355 347 338 331 328 324
187 191 198 206 205 186 190 187 178 224 247 223 248 250 179 157 150 155 146 164 162 158 205 195 165 157 132 96 87 67 45 35 29 21 14 9 0 354 347 340 330 330 329
197 193 198 208 186 190 195 185 177 177 212 219 214 230 172 149 137 146 159 190 164 163 144 171 139 124 105 92 70 54 45 31 27 21 12 3 355 352 348 347 341 335 329
201 202 205 203 185 183 189 164 174 183 189 193 132 96 117 119 137 178 177 175 161 137 133 104 102 112 100 81 60 42 32 21 21 16 8 360 354 352 352 345 336 334 329
199 198 213 204 197 202 200 192 159 178 218 158 127 73 50 44 63 33 206 160 153 151 130 112 92 77 75 67 51 32 16 13 19 10 6 357 352 353 349 340 330 342 353
198 202 208 208 196 201 205 174 165 161 192 190 152 106 129 66 53 20 28 110 161 126 113 97 91 86 76 53 28 15 20 14 16 10 4 354 353 351 346 341 333 340 346
202 210 207 205 203 202 205 189 177 172 168 209 224 135 115 164 117 8 28 34 59 72 84 90 88 85 78 49 20 356 18 14 14 10 360 354 349 350 348 343 339 347 347
202 198 214 204 196 201 203 191 181 178 151 154 82 62 82 149 152 137 30 35 52 62 71 78 87 85 80 32 25 21 3 23 25 10 1 353 351 352 352 343 351 347 344
210 203 203 212 194 184 197 186 174 182 178 141 145 144 116 80 91 138 152 108 55 29 66 91 102 82 29 9 349 357 14 65 37 14 4 354 354 352 348 345 346 343 343
205 213 201 200 206 186 181 205 186 176 171 154 149 156 162 160 170 135 99 101 108 22 58 63 59 36 23 1 9 31 82 69 38 15 1 357 353 354 350 346 350 350 352
193 211 199 188 194 171 161 178 170 180 172 158 166 176 157 151 139 107 120 118 127 195 84 37 32 29 28 7 22 85 83 57 32 11 9 3 354 352 355 353 355 355 354
202 203 204 179 184 206 77 53 148 151 173 135 162 142 137 176 135 142 142 141 119 105 85 125 24 14 11 3 88 82 51 54 35 29 17 15 21 18 14 9 3 1 357
213 200 190 177 161 169 208 167 167 93 85 67 66 83 113 97 96 120 149 160 144 146 128 357 78 350 1 21 103 67 34 62 34 30 21 5 4 12 14 15 14 8 2
221 208 197 178 182 184 186 165 155 121 105 80 65 59 58 56 76 83 101 103 69 120 121 132 57 355 353 39 88 46 39 34 37 26 3 358 358 351 355 357 359 7 1
208 196 194 174 170 168 142 126 128 129 117 112 96 74 50 21 47 70 90 84 84 89 114 86 105 358 28 55 30 13 32 29 351 9 360 354 353 353 349 354 353 11 8
224 214 178 156 144 139 137 136 134 130 122 118 125 108 106 87 68 77 90 85 88 83 114 122 73 43 47 19 58 45 11 11 355 349 351 351 351 353 359 357 15 16 10
231 192 154 152 137 141 131 126 141 136 143 136 133 139 141 139 110 100 91 92 89 88 76 119 114 65 44 28 23 17 350 344 350 347 345 347 348 355 358 7 22 18 14
176 157 165 152 146 143 144 143 151 142 134 148 142 141 130 125 127 107 99 97 99 94 104 107 90 122 78 3 60 26 355 1 327 341 340 354 350 359 4 16 21 20 16
173 132 142 139 143 135 137 137 138 130 135 123 125 118 110 114 113 115 113 110 112 110 121 108 106 89 43 42 34 305 14 321 294 318 319 330 336 340 360 13 20 18 17
129 129 136 138 138 138 136 136 135 132 128 128 117 100 106 107 102 102 105 113 120 130 129 113 130 101 79 73 326 17 15 19 354 360 324 307 5 332 354 11 22 20 17
124 131 125 128 124 131 135 132 130 130 123 127 119 119 109 107 105 104 98 96 96 103 107 130 119 108 102 193 185 22 19 14 287 288 7 319 349 328 350 341 13 23 19
106 120 115 110 113 122 128 118 115 115 114 111 112 117 115 114 116 115 115 111 94 88 90 99 106 117 131 117 87 178 279 312 298 286 58 358 324 323 324 330 359 13 19
93 97 102 112 115 107 124 121 116 114 110 110 113 112 116 119 127 129 122 115 109 97 91 95 97 97 99 79 61 41 24 37 342 322 4 351 316 319 318 323 13 20 21
109 101 97 100 113 113 110 119 118 120 119 118 111 116 122 132 122 129 125 127 121 133 117 95 54 47 60 56 59 62 64 53 10 342 359 19 335 359 352 329 357 20 17